User: anonymous   Login
Location: Libas
(9.8833°N, 125.9833°E)
Time: 21:41:12
(UTC+00:00)
Language:

Meteor 1-31 Rocket - Orbit

View from above orbital plane
View from above orbital plane
View from above satellite
View from above satellite

Ground track
Ground track

The orbit data is extracted from the following two-line orbital elements,

1 12586U 81065B   21016.55961993  .00000362  00000-0  25598-4 0  9993
2 12586  97.6428   4.6458 0019510  31.7316 328.5085 15.10911262149995
Epoch (UTC): 16 January 2021 13:25:51
Eccentricity: 0.0019510
inclination: 97.6428°
perigee height: 520 km
apogee height: 547 km
right ascension of ascending node: 4.6458°
argument of perigee: 31.7316°
revolutions per day: 15.10911262
mean anomaly at epoch: 328.5085°
orbit number at epoch: 14999

The dashed part of the orbit path shows where the satellite is in the earth's shadow,  

DLR